Regional Weather Roundup
Issued by NWS

Home | Current Version | Previous Version | Text Only | Print | Product List | Glossary Off
Versions: 1 2 3 4 5 6 7 8 9 10 11 12 13 14 15 16 17 18 19 20 21 22 23 24 25 26 27 28 29 30 31 32 33 34 35 36 37 38 39 40 41 42 43 44 45 46 47 48 49 50

000
ASUS43 KOAX 260410
RWRNE

WEATHER ROUNDUP FOR NEBRASKA
NATIONAL WEATHER SERVICE OMAHA NE
1100 PM CDT MON JUL 25 2016

NOTES: SATELLITE DATA IS BEING USED TO AUGMENT CLOUD COVER ABOVE
       12000 FEET.
       "FAIR" INDICATES FEW OR NO CLOUDS BELOW 12,000 FEET WITH NO
       SIGNIFICANT WEATHER AND/OR OBSTRUCTIONS TO VISIBILITY.

  * THESE STATIONS DO NOT REPORT WEATHER SUCH AS RAIN...SNOW OR FOG.

NEZ001>004-019>022-054>056-260500-
NEBRASKA PANHANDLE

CITY           SKY/WX    TMP DP  RH WIND       PRES   REMARKS
SCOTTSBLUFF    CLEAR     75  62  64 E12       30.09R
ALLIANCE       CLEAR     72  62  71 SE12      30.11R
CHADRON        CLEAR     82  59  45 S23G29    30.01S
KIMBALL        CLEAR     71  64  77 SE12      30.18R
SIDNEY         CLEAR     72  61  68 S13       30.17R
$$

NEZ057>060-069>072-079>082-260500-
SOUTHWEST NEBRASKA

CITY           SKY/WX    TMP DP  RH WIND       PRES   REMARKS
NORTH PLATTE   CLEAR     70  67  90 SE7       30.12R
IMPERIAL       CLEAR     72  63  73 S7        30.13R
LEXINGTON      CLEAR     75  65  72 SE8       30.13R
MCCOOK         CLEAR     74  63  68 SE9       30.12R
OGALLALA       CLEAR     75  63  66 SE7       30.12R
$$

NEZ005>010-023>029-035>040-094-260500-
NORTH CENTRAL NEBRASKA

CITY           SKY/WX    TMP DP  RH WIND       PRES   REMARKS
VALENTINE      CLEAR     74  62  66 S7        30.07R
AINSWORTH      CLEAR     74  63  68 SE10      30.09S
BROKEN BOW     CLEAR     70  62  76 SE7       30.12R
O`NEILL        CLEAR     73  63  70 SE8       30.11R
ORD            CLEAR     72  63  73 SE6       30.10R
THEDFORD       CLEAR     73  65  76 S8        30.12R
$$

NEZ041-046>049-061>064-073>077-083>087-260500-
SOUTH CENTRAL NEBRASKA

CITY           SKY/WX    TMP DP  RH WIND       PRES   REMARKS
GRAND ISLAND   CLEAR     72  62  71 SE7       30.12R
AURORA         CLEAR     68  65  89 SE7       30.11S
HASTINGS       CLEAR     76  60  57 SE12      30.12R
HEBRON         CLEAR     69  61  77 CALM      30.10S
HOLDREGE       CLEAR     71  60  68 SE7       30.13R
KEARNEY *      CLEAR     70  61  73 SE7       30.13R
YORK           CLEAR     70  64  83 SE6       30.12R
$$

NEZ011>018-030>034-042>045-260500-
NORTHEAST NEBRASKA

CITY           SKY/WX    TMP DP  RH WIND       PRES   REMARKS
NORFOLK        CLEAR     69  63  81 S7        30.10R
ALBION         CLEAR     68  63  84 CALM      30.12R
BLAIR          CLEAR     74  66  76 SE6       30.10R
FREMONT        CLEAR     74  65  72 S3        30.11R
TEKAMAH        CLEAR     70  66  87 S5        30.09R
WAYNE          CLEAR     66  64  91 CALM      30.11R
$$

NEZ050>053-065>068-078-088>093-260500-
SOUTHEAST NEBRASKA

CITY           SKY/WX    TMP DP  RH WIND       PRES   REMARKS
LINCOLN        CLEAR     77  65  66 SE3       30.10R
OMAHA EPPLEY   CLEAR     77  67  71 SE5       30.09R
BEATRICE       CLEAR     70  65  82 CALM      30.10S
FALLS CITY     CLEAR     73  68  84 E3        30.07S
NEBRASKA CITY  CLEAR     74  67  80 E5        30.10R
PLATTSMOUTH    CLOUDY    74  69  83 E5        30.11R
$$

NEZ044-045-051>053-067-260500-
OMAHA AREA

CITY           SKY/WX    TMP DP  RH WIND       PRES   REMARKS
OMAHA EPPLEY   CLEAR     77  67  71 SE5       30.09R
BLAIR          CLEAR     74  66  76 SE6       30.10R
FREMONT        CLEAR     74  65  72 S3        30.11R
MILLARD        PTCLDY    73  68  83 CALM      30.09R
OFFUTT AFB     CLEAR     69  68  96 E3        30.09R
PLATTSMOUTH    CLOUDY    74  69  83 E5        30.11R
WAHOO          FAIR      70  66  86 CALM      30.10R
$$




USA.gov is the U.S. government's official web portal to all federal, state and local government web resources and services.